Location: Brno
(49.2000°N, 16.6330°E)
Time: 05:37:32
(UTC+02:00)

Cosmos 2227 - Visible Passes

Search period start: 29 August 2016 00:00
Search period end: 08 September 2016 00:00
Orbit: 833 x 863 km, 71.0° (Epoch: 28 August)

Date Brightness Start Highest point End Pass type
(mag) Time Alt. Az. Time Alt. Az. Time Alt. Az.
29 Aug 4.5 21:27:18 10° NNW 21:33:01 65° WSW 21:37:03 20° S visible
29 Aug 6.8 23:14:53 10° W 23:16:03 11° W 23:17:12 10° WSW visible
30 Aug 4.5 21:14:12 10° NNW 21:19:54 66° WSW 21:24:32 16° SSE visible
30 Aug 6.8 23:01:36 10° W 23:02:57 11° W 23:04:17 10° WSW visible
31 Aug 4.5 21:01:05 10° NNW 21:06:48 67° WSW 21:12:07 12° SSE visible
31 Aug 6.8 22:48:21 10° WNW 22:49:51 11° W 22:51:21 10° WSW visible
01 Sep 4.5 20:47:57 10° NNW 20:53:41 68° WSW 20:59:20 10° SSE visible
01 Sep 6.8 22:35:07 10° WNW 22:36:45 11° W 22:38:24 10° WSW visible
02 Sep 4.5 20:34:51 10° NNW 20:40:34 69° WSW 20:46:14 10° SSE visible
02 Sep 6.8 22:21:53 10° WNW 22:23:39 11° W 22:25:25 10° WSW visible
03 Sep 4.6 20:21:43 10° NNW 20:27:28 70° WSW 20:33:07 10° SSE visible
03 Sep 6.9 22:08:40 10° WNW 22:10:34 12° W 22:12:27 10° WSW visible
04 Sep 4.6 20:08:37 10° NNW 20:14:20 71° WSW 20:20:00 10° SSE visible
04 Sep 6.9 21:55:27 10° WNW 21:57:27 12° W 21:59:27 10° WSW visible
05 Sep 4.6 19:55:29 10° NNW 20:01:14 72° WSW 20:06:54 10° SSE visible
05 Sep 6.9 21:42:15 10° WNW 21:44:21 12° W 21:46:28 10° WSW visible
06 Sep 6.9 21:29:03 10° WNW 21:31:15 12° W 21:33:27 10° WSW visible
07 Sep 7.0 21:15:51 10° WNW 21:18:09 13° W 21:20:27 10° WSW visible
